CW5834 Weather Reports


time (UTC)temp
F
wind
direction
speed
knots
gust
knots
rain 1hr
in
rain 24hr
in
rain mn
in
humidity
%
barometer
mb
20260905205017 90 203 1.7 4.3 0.00 0.00 0.00 63 1014.0
20260905204017 89 158 0.9 3.5 0.00 0.00 0.00 64 1014.0
20260905203017 90 135 1.7 2.6 0.00 0.00 0.00 62 1014.1
20260905202018 90 135 0.9 2.6 0.00 0.00 0.00 62 1014.3
20260905201017 89 135 0.9 4.3 0.00 0.00 0.00 64 1014.3
20260905200017 89 158 1.7 5.2 0.00 0.00 0.00 64 1014.7
20260905195017 89 135 2.6 5.2 0.00 0.00 0.00 64 1015.0
20260905194015 89 135 2.6 6.1 0.00 0.00 0.00 64 1015.0
20260905193037 89 135 1.7 4.3 0.00 0.00 0.00 64 1015.2
20260905192017 89 203 1.7 4.3 0.00 0.00 0.00 65 1015.4
20260905191017 88 135 2.6 5.2 0.00 0.00 0.00 65 1015.5
20260905190037 88 158 2.6 6.1 0.00 0.00 0.00 65 1015.5
20260905185037 89 0 0.9 1.7 0.00 0.00 0.00 64 1015.7
20260905184017 88 113 0.9 1.7 0.00 0.00 0.00 65 1015.7
20260905183017 88 135 1.7 5.2 0.00 0.00 0.00 66 1016.0
20260905182018 88 158 2.6 7.0 0.00 0.00 0.00 66 1016.2
20260905181137 87 68 1.7 4.3 0.00 0.00 0.00 69 1016.4
20260905180037 87 158 1.7 4.3 0.00 0.00 0.00 71 1016.7
20260905175017 88 135 1.7 5.2 0.00 0.00 0.00 69 1016.8
20260905174017 87 90 1.7 3.5 0.00 0.00 0.00 69 1016.9
20260905173017 87 45 1.7 3.5 0.00 0.00 0.00 68 1016.9
20260905172017 86 135 1.7 5.2 0.00 0.00 0.00 70 1016.9
20260905171017 86 135 4.3 7.8 0.00 0.00 0.00 70 1017.1
20260905170037 86 113 1.7 4.3 0.00 0.00 0.00 73 1017.1
20260905165017 84 23 1.7 5.2 0.00 0.00 0.00 73 1017.2
20260905164017 83 0 0.9 1.7 0.00 0.00 0.00 75 1017.2
20260905163016 83 0 1.7 2.6 0.00 0.00 0.00 73 1017.1
20260905162017 84 113 1.7 4.3 0.00 0.00 0.00 72 1017.4
20260905161017 84 0 2.6 7.8 0.00 0.00 0.00 72 1017.5
20260905160037 85 0 5.2 12.2 0.00 0.00 0.00 72 1017.5
20260905155017 85 23 1.7 4.3 0.00 0.00 0.00 73 1017.6
20260905154017 85 23 1.7 7.8 0.00 0.00 0.00 71 1017.6
20260905153017 86 180 0.9 2.6 0.00 0.00 0.00 70 1017.2
20260905152017 86 225 0.9 2.6 0.00 0.00 0.00 70 1016.9
20260905151016 85 225 1.7 3.5 0.00 0.00 0.00 73 1016.9
20260905150017 84 203 2.6 5.2 0.00 0.00 0.00 73 1016.8
20260905145017 85 225 1.7 6.1 0.00 0.00 0.00 71 1017.0
20260905144016 84 203 1.7 3.5 0.00 0.00 0.00 72 1016.9
20260905143016 84 225 1.7 3.5 0.00 0.00 0.00 73 1017.0
20260905142017 83 135 0.9 1.7 0.00 0.00 0.00 73 1017.2
20260905141017 83 180 0.9 1.7 0.00 0.00 0.00 74 1017.2
20260905140016 82 180 0.9 1.7 0.00 0.00 0.00 76 1017.2
20260905135016 81 180 0.9 1.7 0.00 0.00 0.00 77 1017.0
20260905134016 80 225 0.9 1.7 0.00 0.00 0.00 78 1017.1
20260905133016 79 0.0 1.7 0.00 0.00 0.00 84 1017.2
20260905132016 78 0.0 1.7 0.00 0.00 0.00 85 1017.2
20260905131016 76 0.0 1.7 0.00 0.00 0.00 86 1017.2
20260905130017 74 0.0 1.7 0.00 0.00 0.00 90 1017.3
20260905125017 73 0.0 0.9 0.00 0.00 0.00 91 1017.6
20260905124017 72 0.0 0.9 0.00 0.00 0.00 92 1017.5
20260905123016 72 135 0.9 1.7 0.00 0.00 0.00 93 1017.5
20260905122016 71 0.0 0.0 0.00 0.00 0.00 93 1017.3
20260905121016 70 0.0 0.9 0.00 0.00 0.00 94 1017.2
20260905120016 70 135 0.9 1.7 0.00 0.00 0.00 95 1017.1
20260905115016 69 0.0 0.0 0.00 0.00 0.00 95 1017.2
20260905114016 69 0.0 1.7 0.00 0.00 0.00 94 1016.9
20260905113016 69 0.0 0.0 0.00 0.00 0.00 94 1017.0
20260905112016 69 0.0 0.0 0.00 0.00 0.00 94 1016.9
20260905111036 69 0.0 1.7 0.00 0.00 0.00 94 1016.5
20260905110016 69 0.0 0.0 0.00 0.00 0.00 94 1016.6
20260905105016 69 0.0 0.0 0.00 0.00 0.00 94 1016.6
20260905104036 69 0.0 1.7 0.00 0.00 0.00 94 1016.5
20260905103016 69 0 0.9 0.9 0.00 0.00 0.00 94 1016.5
20260905102016 69 0.0 1.7 0.00 0.00 0.00 94 1016.5
20260905101016 69 0.0 1.7 0.00 0.00 0.00 94 1016.4
20260905100036 69 0.0 1.7 0.00 0.00 0.00 93 1016.5
20260905095016 69 0.0 1.7 0.00 0.00 0.00 94 1016.5
20260905094016 69 0.0 1.7 0.00 0.00 0.00 94 1016.3
20260905093016 70 0.0 0.9 0.00 0.00 0.00 94 1016.2
20260905092016 70 0.0 1.7 0.00 0.00 0.00 94 1016.2
20260905091016 70 0.0 1.7 0.00 0.00 0.00 94 1016.1
20260905090016 70 0.0 1.7 0.00 0.00 0.00 93 1016.0
20260905085016 70 0.0 1.7 0.00 0.00 0.00 93 1016.1
20260905084016 70 0.0 1.7 0.00 0.00 0.00 93 1016.2
20260905083016 70 0.0 0.9 0.00 0.00 0.00 93 1016.3
20260905082016 70 338 0.9 1.7 0.00 0.00 0.00 93 1016.2
20260905081016 70 0.0 0.9 0.00 0.00 0.00 93 1016.5
20260905080036 70 0.0 0.0 0.00 0.00 0.00 93 1016.4
20260905075016 71 0.0 0.9 0.00 0.00 0.00 93 1016.5
20260905074016 71 0.0 0.9 0.00 0.00 0.00 93 1016.7
20260905073036 71 0 0.9 1.7 0.00 0.00 0.00 92 1016.8
20260905072016 71 0.0 1.7 0.00 0.00 0.00 92 1016.9
20260905071023 71 0.0 1.7 0.00 0.00 0.00 92 1017.0
20260905070035 71 0.0 1.7 0.00 0.00 0.00 92 1017.0
20260905065015 71 0.0 0.9 0.00 0.00 0.00 92 1017.1
20260905064015 72 0.0 0.9 0.00 0.00 0.00 92 1017.1
20260905063016 72 0.0 1.7 0.00 0.00 0.00 92 1017.1
20260905062035 72 0 0.9 0.9 0.00 0.00 0.00 91 1017.3
20260905061015 72 0.0 1.7 0.00 0.00 0.00 91 1017.4
20260905060036 72 0.0 1.7 0.00 0.00 0.00 91 1017.5
20260905055035 72 0.0 1.7 0.00 0.00 0.00 91 1017.5
20260905054017 72 0.0 1.7 0.00 0.00 0.00 91 1017.6
20260905053017 72 0.0 0.9 0.00 0.00 0.00 91 1017.6
20260905052017 72 0.0 1.7 0.00 0.00 0.00 90 1017.5
20260905051018 73 0.0 1.7 0.00 0.00 0.00 91 1017.7
20260905050037 73 0.0 1.7 0.00 0.00 0.00 91 1017.7
20260905045017 73 0 0.9 0.9 0.00 0.00 0.00 90 1017.7
20260905044017 73 23 0.9 0.9 0.00 0.00 0.00 90 1017.7
20260905043037 73 0.0 1.7 0.00 0.00 0.00 89 1017.7
20260905042017 74 0.0 0.0 0.00 0.00 0.00 89 1017.5
20260905041017 74 0.0 0.9 0.00 0.00 0.00 89 1017.5
20260905040017 74 0.0 1.7 0.00 0.00 0.00 90 1017.2
20260905035016 74 0.0 0.9 0.00 0.00 0.00 90 1017.5
20260905034016 74 113 0.9 0.9 0.00 0.00 0.00 90 1017.2
20260905033036 74 113 0.9 1.7 0.00 0.00 0.00 89 1016.9
20260905032016 74 0.0 0.0 0.00 0.00 0.00 89 1016.7
20260905031036 74 0.0 0.9 0.00 0.00 0.00 88 1016.8
20260905030016 75 0.0 0.0 0.00 0.00 0.00 88 1016.9
20260905025036 75 0.0 1.7 0.00 0.00 0.00 88 1017.0
20260905024016 75 0.0 0.9 0.00 0.00 0.00 87 1016.9
20260905023016 75 0.0 1.7 0.00 0.00 0.00 87 1017.2
20260905022016 76 0.0 0.9 0.00 0.00 0.00 85 1017.2
20260905021016 76 0 0.9 0.9 0.00 0.00 0.00 84 1017.0
20260905020016 77 0.0 1.7 0.00 0.00 0.00 83 1017.1
20260905015016 77 0.0 1.7 0.00 0.00 0.00 83 1017.2
20260905014016 78 0.0 1.7 0.00 0.00 0.00 82 1017.0
20260905013016 78 0.0 0.9 0.00 0.00 0.00 82 1016.7
20260905012016 79 0.0 1.7 0.00 0.00 0.00 81 1016.9
20260905011036 79 45 0.9 0.9 0.00 0.00 0.00 79 1017.0
20260905010016 80 338 0.9 1.7 0.00 0.00 0.00 78 1017.1
20260905005016 80 0.0 0.9 0.00 0.00 0.00 77 1017.0
20260905004016 81 0.0 0.9 0.00 0.00 0.00 75 1017.0
20260905003016 82 0.0 1.7 0.00 0.00 0.00 73 1016.9
20260905002019 82 293 0.9 2.6 0.00 0.00 0.00 72 1017.0
20260905001016 82 0.0 1.7 0.00 0.00 0.00 72 1017.1
20260905000016 82 0.0 1.7 0.00 0.00 0.00 74 1017.1
20260904235015 82 23 0.9 3.5 0.00 0.00 0.00 76 1017.2
20260904234016 83 0.0 0.9 0.00 0.00 0.00 74 1016.9
20260904233016 84 338 0.9 0.9 0.00 0.00 0.00 72 1017.0
20260904232016 85 338 0.9 0.9 0.00 0.00 0.00 73 1016.8
20260904231016 87 0.0 0.9 0.00 0.00 0.00 71 1016.7
20260904230015 88 0.0 0.9 0.00 0.00 0.00 71 1016.8
20260904225016 90 0.0 0.9 0.00 0.00 0.00 67 1016.8
20260904224016 91 338 0.9 0.9 0.00 0.00 0.00 66 1016.7
20260904223035 91 338 0.9 0.9 0.00 0.00 0.00 66 1016.6
20260904222016 92 23 0.9 0.9 0.00 0.00 0.00 62 1016.6
20260904221116 93 0 0.9 0.9 0.00 0.00 0.00 60 1016.7
20260904220015 94 338 0.9 1.7 0.00 0.00 0.00 58 1016.7
20260904215017 94 0 1.7 2.6 0.00 0.00 0.00 55 1016.6
20260904214017 95 338 0.9 2.6 0.00 0.00 0.00 56 1016.7
20260904213017 94 45 0.9 1.7 0.00 0.00 0.00 56 1016.7
20260904212038 94 45 0.9 1.7 0.00 0.00 0.00 52 1016.7
20260904211017 95 338 0.9 1.7 0.00 0.00 0.00 51 1016.8
20260904210017 95 338 1.7 3.5 0.00 0.00 0.00 52 1016.8